[[{"header":{"parameterUnit":"m.s-1","parameterCategory":1,"la1":30.2991,"la2":30.254,"lo1":-89.0895,"lo2":-89.0444,"dy":0.0017,"dx":0.0017,"nx":28,"ny":28,"refTime":"2026-02-08T03:00:00:Z","depth":0,"parameterNumber":2,"parameterNumberName":"U-component_of_WINDS"},"data":[0,0,0,0,0,0,0,0,0,0,0,0,0,0,0,0,0,0,0,0,0,0,0,0,0,0,0,0,0,0,0,0,0,0,0,0,0,0,0,0,0,0,0,0,0,0,0,0,0,0,0,0,0,0,0,0,0,0,2.3709,2.371,0,2.3782,2.3783,2.3783,2.3765,2.3764,2.3762,2.3761,2.384,2.3844,2.3847,0,0,0,0,0,0,0,0,0,0,0,0,0,2.3562,2.3564,2.3709,2.371,2.3711,2.3782,2.3783,2.3784,2.3765,2.3763,2.3762,2.376,2.3839,2.3843,2.3848,0,0,0,0,0,0,0,0,0,0,0,0,0,2.3629,2.3565,2.3709,2.371,2.3711,2.3781,2.3783,2.3784,2.3766,2.3763,2.3761,2.3759,2.3838,2.3843,2.3848,2.3924,0,0,2.3864,2.3866,0,0,0,0,0,0,0,0,2.3626,2.3635,2.3709,2.371,2.3711,2.3762,2.376,2.3831,2.3766,2.3745,2.3761,2.3758,2.3816,2.3823,2.3842,2.3927,2.3931,2.3864,2.3868,2.387,2.3871,0,0,0,0,0,0,0,2.3621,2.3632,2.3738,2.371,2.3712,2.3709,2.3717,2.3773,2.3792,2.3747,2.3745,2.3754,2.3817,2.3837,2.3844,2.3932,2.3864,2.3869,2.3872,2.3874,2.4087,2.409,0,0,0,0,0,0,2.3614,2.3628,2.3736,2.374,2.3662,2.3714,2.3722,2.3748,2.3791,2.3796,2.3756,2.3753,2.3829,2.3838,2.3846,2.394,2.387,2.3875,2.3878,2.4085,2.4088,2.4091,0,0,0,0,0,0,2.3611,2.3624,2.3733,2.3684,2.3697,2.3719,2.3748,2.3751,2.3771,2.3798,2.3802,2.3772,2.3828,2.3839,2.3905,2.3942,2.3877,2.3882,2.4082,2.4086,2.4089,2.4126,0,0,0,0,0,0,2.3607,2.3623,2.365,2.3684,2.37,2.3788,2.375,2.3754,2.3779,2.3776,2.3815,2.3819,2.3827,2.3897,2.391,2.3948,2.3886,2.4079,2.4083,2.4088,2.4122,2.4131,2.4138,0,0,0,0,0,2.3602,2.3658,2.3651,2.3665,2.3734,2.379,2.3799,2.3805,2.3782,2.3811,2.3829,2.3818,2.3936,2.3904,2.3919,2.3959,2.4076,2.4082,2.4088,2.4118,2.4129,2.4138,0,0,0,0,0,0,2.3628,2.3662,2.3655,2.3724,2.3754,2.3787,2.3823,2.3816,2.3855,2.385,2.3858,2.3867,2.3935,2.3953,2.3917,2.4036,2.4003,2.4012,2.4021,2.4032,2.404,2.4035,2.389,0,0,0,0,0,2.3642,2.3683,2.3711,2.3769,2.3784,2.3801,2.3826,2.3828,2.386,2.3874,2.3896,2.393,2.3975,2.4005,2.4047,2.4124,2.4134,2.4159,2.4168,2.4175,2.4182,2.4228,2.424,2.4109,2.4109,2.4109,0,0,2.3671,2.3694,2.372,2.3775,2.3798,2.3843,2.3812,2.386,2.3894,2.3881,2.3945,2.3964,2.4002,2.4075,2.4108,2.4092,2.4221,2.4182,2.4187,2.4191,2.4235,2.4247,2.4258,2.4113,2.4112,2.4112,0,0,2.3746,2.3767,2.3818,2.3843,2.3879,2.3891,2.3903,2.3938,2.395,2.4013,2.4006,2.4048,2.4124,2.4153,2.4177,2.4267,2.426,2.4281,2.4325,2.4369,2.438,2.4389,2.4423,2.4435,2.4289,2.4289,2.4289,0,2.3777,2.3842,2.3846,2.3896,2.3922,2.3912,2.3966,2.399,2.4039,2.4059,2.404,2.4138,2.4163,2.4243,2.4266,2.4285,2.4302,2.4277,2.4377,2.4387,2.4396,2.4428,2.4441,2.4291,2.4291,2.4291,2.4291,0,2.3881,2.3926,2.3964,2.4011,2.4041,2.4093,2.4107,2.4138,2.4139,2.4153,2.422,2.425,2.43,2.4319,2.432,2.4402,2.4391,2.4375,2.4342,2.441,2.4442,2.4454,2.4295,2.4294,2.4293,2.4293,0,0,2.3973,2.4023,2.4037,2.4059,2.41,2.4137,2.419,2.4238,2.4265,2.43,2.4347,2.4413,2.4399,2.4427,2.4432,2.4471,2.4543,2.445,2.4451,2.4468,2.4638,2.465,2.4665,2.4539,2.4541,2.4543,2.4635,0,2.4053,2.4144,2.4151,2.4234,2.4278,2.4271,2.4318,2.4349,2.4365,2.4407,2.4425,2.4473,2.445,2.4467,2.4505,2.4526,2.4578,2.452,2.4584,2.4587,2.4575,2.468,2.4693,2.4779,2.4647,2.4649,2.4651,0,2.4158,2.4196,2.4283,2.4321,2.434,2.4381,2.4427,2.4466,2.4504,2.4513,2.4545,2.4545,2.4603,2.4568,2.465,2.461,2.4638,2.4653,2.4656,2.4663,2.4623,2.4692,2.4806,2.4819,2.467,2.4668,2.4667,0,2.4219,2.4292,2.4354,2.4374,2.4418,2.4448,2.4469,2.4504,2.4533,2.4574,2.4594,2.4642,2.4669,2.4707,2.4721,2.4694,2.4803,2.4769,2.4815,2.4815,2.4838,2.4836,2.4959,2.4854,2.4854,2.4854,2.4853,0,2.4308,2.4362,2.4383,2.4421,2.4483,2.4492,2.4554,2.4573,2.4605,2.4649,2.4647,2.4689,2.4704,2.475,2.4762,2.483,2.4841,2.4852,2.4855,2.4853,2.4852,2.4871,2.4866,2.4857,2.4856,2.4856,2.4855,0,2.4386,2.4401,2.4469,2.4507,2.4518,2.4562,2.4595,2.4634,2.465,2.4706,2.472,2.4746,2.48,2.4818,2.4884,2.4892,2.4971,2.4968,2.4958,2.4958,2.5004,2.5,2.5144,2.5165,2.5045,2.5046,2.5047,0,2.4442,2.4484,2.4526,2.4555,2.4576,2.4623,2.4653,2.4665,2.4697,2.4744,2.4778,2.4832,2.4875,2.4962,2.4988,2.504,2.5039,2.5086,2.5046,2.5044,2.5041,2.5039,2.5045,2.5093,2.5095,2.5096,2.5096,0,2.4541,2.4547,2.459,2.4636,2.4672,2.4709,2.4746,2.477,2.4788,2.4825,2.4879,2.4913,2.498,2.5035,2.5087,2.5111,2.5108,2.5109,2.5122,2.5121,2.5114,2.512,2.4979,2.5105,2.5104,2.5104,2.5103,2.5103,2.4611,2.4649,2.4685,2.4733,2.4762,2.4797,2.4836,2.4857,2.4902,2.4957,2.4962,2.5022,2.5062,2.5132,2.5159,2.5208,2.5195,2.5214,2.5219,2.5224,2.5228,2.5106,2.5218,2.5217,2.5217,2.5217,2.5217,0,2.4711,2.4735,2.4779,2.483,2.4869,2.4861,2.4902,2.4936,2.4988,2.5025,2.5068,2.5133,2.5186,2.5217,2.5271,2.5305,2.5305,2.5319,2.5317,2.5323,2.5236,2.5219,2.5318,2.5318,2.5318,2.5318,2.5318,2.5318,2.4768,2.4832,2.4843,2.4923,2.4947,2.5004,2.5028,2.5062,2.5091,2.5163,2.5207,2.5226,2.5262,2.532,2.5369,2.5378,2.5398,2.5414,2.5421,2.5339,2.5329,2.5319,2.5303,2.5418,2.5418,2.5504,2.5505,2.5505]},{"header":{"parameterUnit":"m.s-1","parameterCategory":1,"la1":30.2991,"la2":30.254,"lo1":-89.0895,"lo2":-89.0444,"dy":0.0017,"dx":0.0017,"nx":28,"ny":28,"refTime":"2026-02-08T03:00:00:Z","depth":0,"parameterNumber":3,"parameterNumberName":"V-component_of_WINDS"},"data":[0,0,0,0,0,0,0,0,0,0,0,0,0,0,0,0,0,0,0,0,0,0,0,0,0,0,0,0,0,0,0,0,0,0,0,0,0,0,0,0,0,0,0,0,0,0,0,0,0,0,0,0,0,0,0,0,0,0,1.4236,1.4236,0,1.4271,1.4271,1.4272,1.4259,1.4258,1.4257,1.4256,1.4291,1.4292,1.4294,0,0,0,0,0,0,0,0,0,0,0,0,0,1.4155,1.4156,1.4235,1.4236,1.4236,1.4271,1.4271,1.4272,1.4259,1.4258,1.4257,1.4256,1.429,1.4292,1.4294,0,0,0,0,0,0,0,0,0,0,0,0,0,1.419,1.4157,1.4235,1.4234,1.4234,1.4271,1.4271,1.4272,1.4259,1.4258,1.4256,1.4255,1.429,1.4292,1.4294,1.4334,0,0,1.4302,1.4303,0,0,0,0,0,0,0,0,1.4188,1.4193,1.4234,1.4234,1.4235,1.4259,1.4255,1.4293,1.4259,1.4249,1.4256,1.4255,1.4281,1.4284,1.4293,1.4335,1.4337,1.4302,1.4304,1.4305,1.4306,0,0,0,0,0,0,0,1.4186,1.4191,1.4249,1.4234,1.4235,1.4231,1.4235,1.4262,1.4271,1.425,1.4249,1.4254,1.4281,1.4291,1.4294,1.4337,1.4302,1.4304,1.4306,1.4307,1.4413,1.4414,0,0,0,0,0,0,1.4183,1.4189,1.4248,1.425,1.4208,1.4233,1.4238,1.4252,1.4271,1.4273,1.4255,1.4253,1.4287,1.4291,1.4295,1.4342,1.4305,1.4307,1.4309,1.4412,1.4413,1.4415,0,0,0,0,0,0,1.4182,1.4189,1.4247,1.422,1.4227,1.4236,1.4253,1.4254,1.4264,1.4275,1.4276,1.4263,1.4287,1.4292,1.4324,1.4343,1.4308,1.4311,1.441,1.4412,1.4414,1.4437,0,0,0,0,0,0,1.4179,1.4188,1.4204,1.422,1.4228,1.4276,1.4254,1.4255,1.4268,1.4266,1.4283,1.4285,1.4286,1.4321,1.4327,1.4346,1.4312,1.4408,1.4411,1.4413,1.4435,1.444,1.4444,0,0,0,0,0,1.4177,1.4209,1.4205,1.4212,1.4248,1.4277,1.4282,1.4283,1.427,1.4285,1.4292,1.4284,1.434,1.4324,1.4331,1.4351,1.4407,1.441,1.4413,1.4433,1.4439,1.4444,0,0,0,0,0,0,1.4193,1.4211,1.4206,1.4245,1.426,1.4275,1.4294,1.4289,1.4308,1.4305,1.4305,1.4309,1.4343,1.435,1.4332,1.439,1.4372,1.4376,1.4384,1.439,1.4395,1.4392,1.4315,0,0,0,0,0,1.4202,1.4225,1.4238,1.4271,1.4278,1.4285,1.4298,1.4297,1.4313,1.4319,1.4328,1.4342,1.4363,1.4377,1.4397,1.4436,1.4439,1.4453,1.4458,1.4461,1.4465,1.4486,1.4493,1.4424,1.4424,1.4424,0,0,1.4219,1.4231,1.4245,1.4274,1.4286,1.4309,1.429,1.4316,1.4333,1.4322,1.4354,1.4361,1.4377,1.4413,1.4429,1.442,1.4485,1.4465,1.4468,1.447,1.449,1.4496,1.4502,1.4426,1.4426,1.4426,0,0,1.4262,1.4274,1.4302,1.4314,1.4332,1.4336,1.4343,1.4359,1.4364,1.4395,1.4388,1.4408,1.4444,1.4456,1.4466,1.4514,1.4507,1.452,1.4544,1.4565,1.457,1.4575,1.4592,1.4598,1.4524,1.4524,1.4524,0,1.4281,1.4316,1.4317,1.4343,1.4356,1.4348,1.4377,1.4388,1.4411,1.442,1.4409,1.4454,1.4464,1.4503,1.4515,1.4523,1.4531,1.4518,1.4569,1.4574,1.4578,1.4595,1.4601,1.4525,1.4525,1.4525,1.4525,0,1.4339,1.4363,1.4384,1.4407,1.4422,1.4449,1.4454,1.4469,1.4467,1.4472,1.4504,1.4516,1.4538,1.4547,1.4545,1.4585,1.4579,1.4569,1.455,1.4586,1.4602,1.4608,1.4527,1.4527,1.4526,1.4526,0,0,1.4394,1.4418,1.4425,1.4436,1.4454,1.4473,1.4499,1.4521,1.4534,1.455,1.4572,1.4602,1.4593,1.4605,1.4605,1.4622,1.4659,1.461,1.461,1.4619,1.4704,1.4712,1.4719,1.4655,1.4656,1.4657,1.4702,0,1.4439,1.4487,1.4488,1.4531,1.4553,1.4546,1.4569,1.4582,1.4588,1.4607,1.4612,1.4634,1.462,1.4627,1.4645,1.4651,1.4676,1.4648,1.4675,1.4676,1.4671,1.4727,1.4735,1.4778,1.4708,1.4709,1.471,0,1.4498,1.4517,1.4562,1.4578,1.4587,1.4608,1.4628,1.4646,1.4661,1.4664,1.4678,1.4674,1.47,1.4681,1.4717,1.4697,1.4708,1.4713,1.4715,1.4717,1.4695,1.4731,1.4791,1.4798,1.4719,1.4719,1.4718,0,1.4534,1.457,1.4602,1.4611,1.463,1.4645,1.4653,1.4667,1.468,1.4697,1.4706,1.4726,1.4737,1.4752,1.4754,1.4739,1.479,1.477,1.4793,1.4793,1.4804,1.4803,1.4867,1.4811,1.4811,1.481,1.481,0,1.4585,1.4613,1.4619,1.4638,1.4669,1.467,1.4701,1.4708,1.472,1.474,1.4735,1.4754,1.4755,1.4774,1.4776,1.4805,1.481,1.4813,1.4813,1.4814,1.4813,1.4821,1.4818,1.4812,1.4812,1.4811,1.4811,0,1.463,1.4636,1.467,1.4685,1.4689,1.4711,1.4724,1.4742,1.4747,1.4773,1.4779,1.4786,1.4808,1.4812,1.4838,1.4839,1.4874,1.4871,1.487,1.4869,1.4891,1.4889,1.4963,1.4972,1.4909,1.491,1.491,0,1.4662,1.4684,1.4701,1.4715,1.4724,1.4746,1.476,1.4761,1.4775,1.4794,1.481,1.4832,1.485,1.4886,1.4893,1.4913,1.491,1.4934,1.4913,1.4913,1.4911,1.491,1.4912,1.4939,1.4939,1.494,1.494,0,1.4718,1.472,1.474,1.4761,1.4777,1.4794,1.4809,1.482,1.4824,1.484,1.4863,1.4877,1.4904,1.4926,1.4945,1.4953,1.4947,1.4947,1.4953,1.4954,1.4953,1.4954,1.4881,1.4945,1.4945,1.4944,1.4944,1.4944,1.4758,1.4777,1.4793,1.4815,1.4827,1.4841,1.486,1.4867,1.4886,1.4909,1.4908,1.4934,1.4947,1.4973,1.4983,1.5002,1.4994,1.5003,1.5005,1.5008,1.501,1.4949,1.5006,1.5005,1.5005,1.5005,1.5005,0,1.4814,1.4824,1.4845,1.4867,1.4884,1.4878,1.4894,1.4909,1.4932,1.4946,1.4964,1.499,1.5011,1.502,1.504,1.5054,1.5052,1.506,1.5059,1.5061,1.5016,1.5009,1.5061,1.5061,1.5061,1.5061,1.5061,1.5061,1.4846,1.4877,1.4881,1.4918,1.4927,1.4952,1.4962,1.4975,1.4986,1.5017,1.5034,1.504,1.5052,1.5073,1.5092,1.5094,1.5102,1.511,1.5111,1.5069,1.5064,1.5058,1.5052,1.5112,1.5112,1.5154,1.5155,1.5155]}]]